This is the latest recevied weather packets stored in our database for station/object K0VSC-1. If no packets are shown the sender has not sent any weather packets the latest 10 day(s).
| Time | Temp. | Humidity | Pressure | Rain* | Wind** | Luminosity | Snow |
|---|---|---|---|---|---|---|---|
| 1778098683 | 5.56° C | 49% | 1016.9 hPa | 0 mm | - | 267 W/m² | - |
| 1778098383 | 5° C | 50% | 1017 hPa | 0 mm | - | 320 W/m² | - |
| 1778098083 | 5° C | 50% | 1016.9 hPa | 0 mm | - | 327 W/m² | - |
| 1778097783 | 5° C | 51% | 1017 hPa | 0 mm | - | 325 W/m² | - |
| 1778097483 | 5° C | 51% | 1017 hPa | 0 mm | - | 309 W/m² | - |
| 1778097183 | 4.44° C | 51% | 1017.1 hPa | 0 mm | - | 345 W/m² | - |
| 1778096883 | 5° C | 51% | 1017 hPa | 0 mm | - | 299 W/m² | - |
| 1778096583 | 5° C | 51% | 1017 hPa | 0 mm | - | 323 W/m² | - |
| 1778096283 | 5° C | 50% | 1017.1 hPa | 0 mm | - | 353 W/m² | - |
| 1778095983 | 5° C | 50% | 1017.1 hPa | 0 mm | - | 432 W/m² | - |
| 1778095683 | 4.44° C | 53% | 1017.1 hPa | 0 mm | - | 464 W/m² | - |
| 1778095383 | 4.44° C | 51% | 1017 hPa | 0 mm | - | 496 W/m² | - |
| 1778095083 | 4.44° C | 52% | 1017 hPa | 0 mm | - | 490 W/m² | - |
| 1778094783 | 4.44° C | 53% | 1017 hPa | 0 mm | - | 429 W/m² | - |
| 1778094483 | 4.44° C | 52% | 1017 hPa | 0 mm | - | 378 W/m² | - |
| 1778094183 | 4.44° C | 53% | 1016.9 hPa | 0 mm | - | 550 W/m² | - |
| 1778093883 | 4.44° C | 52% | 1016.9 hPa | 0 mm | - | 487 W/m² | - |
| 1778093583 | 4.44° C | 52% | 1017 hPa | 0 mm | - | 429 W/m² | - |
| 1778093283 | 4.44° C | 53% | 1017 hPa | 0 mm | - | 388 W/m² | - |
| 1778092983 | 4.44° C | 53% | 1017.1 hPa | 0 mm | - | 425 W/m² | - |
| 1778092683 | 3.89° C | 55% | 1017.1 hPa | 0 mm | - | 455 W/m² | - |
| 1778092383 | 3.89° C | 54% | 1017.1 hPa | 0 mm | - | 469 W/m² | - |
| 1778092083 | 3.89° C | 54% | 1017.2 hPa | 0 mm | - | 406 W/m² | - |
| 1778091783 | 3.89° C | 53% | 1017.1 hPa | 0 mm | - | 443 W/m² | - |
| 1778091483 | 3.89° C | 53% | 1017.3 hPa | 0 mm | - | 417 W/m² | - |
* Rain latest hour (hover to see other rain measurements)
** Current wind speed in m/s (hover to see current wind gust speed)